Wetterdaten: aktuell Freitag, 15.02.2019 20:00
Datum Zeit Temp. I. Temp. A. Temp. 2 Feuchte I. Feuchte A. Luftdruck Regen Wind Richtung Richtung Taupunkt Windben
15.02.2019 20:00 19,9 C 8,3 C 5,9 C 70 % 45 % 1028,9 hPa 0,0 l/m 0,0 km/h N 360 0,3 C 0,0 km/h
15.02.2019 19:55 19,9 C 8,5 C 6,0 C 70 % 46 % 1028,9 hPa 0,0 l/m 0,0 km/h N 360 0,5 C 0,0 km/h
15.02.2019 19:50 19,8 C 8,7 C 6,0 C 70 % 46 % 1028,9 hPa 0,0 l/m 0,0 km/h N 360 0,4 C 0,0 km/h
15.02.2019 19:45 19,8 C 8,8 C 6,2 C 70 % 46 % 1028,9 hPa 0,0 l/m 0,0 km/h N 360 0,3 C 0,0 km/h
15.02.2019 19:40 19,7 C 9,1 C 6,5 C 70 % 47 % 1028,9 hPa 0,0 l/m 0,0 km/h N 360 0,3 C 0,0 km/h
15.02.2019 19:35 19,7 C 9,3 C 6,8 C 70 % 47 % 1028,9 hPa 0,0 l/m 0,0 km/h N 360 0,5 C 0,0 km/h
15.02.2019 19:30 19,6 C 9,6 C 7,2 C 70 % 48 % 1028,9 hPa 0,0 l/m 0,0 km/h N 360 0,5 C 0,0 km/h
15.02.2019 19:25 19,6 C 9,7 C 7,3 C 70 % 48 % 1028,9 hPa 0,0 l/m 0,0 km/h N 360 0,6 C 0,0 km/h
15.02.2019 19:20 19,6 C 9,9 C 7,3 C 70 % 48 % 1028,6 hPa 0,0 l/m 0,0 km/h N 360 0,8 C 0,0 km/h
15.02.2019 19:15 19,5 C 9,9 C 7,3 C 70 % 48 % 1028,6 hPa 0,0 l/m 0,0 km/h N 360 0,8 C 0,0 km/h
15.02.2019 19:10 19,5 C 10,1 C 7,4 C 70 % 48 % 1028,6 hPa 0,0 l/m 0,0 km/h N 360 1,0 C 0,0 km/h
15.02.2019 19:05 19,4 C 10,0 C 7,3 C 70 % 48 % 1028,6 hPa 0,0 l/m 0,0 km/h N 360 0,9 C 0,0 km/h
15.02.2019 19:00 19,4 C 10,2 C 7,1 C 70 % 49 % 1028,7 hPa 0,0 l/m 0,0 km/h N 360 0,8 C 0,0 km/h
15.02.2019 18:55 19,4 C 10,3 C 7,0 C 70 % 49 % 1028,7 hPa 0,0 l/m 0,0 km/h N 360 0,9 C 0,0 km/h
15.02.2019 18:50 19,4 C 10,5 C 7,2 C 70 % 49 % 1028,7 hPa 0,0 l/m 0,0 km/h N 360 0,8 C 0,0 km/h
15.02.2019 18:45 19,4 C 10,7 C 7,5 C 70 % 49 % 1028,7 hPa 0,0 l/m 0,0 km/h N 360 1,0 C 0,0 km/h
15.02.2019 18:40 19,2 C 10,8 C 7,7 C 70 % 50 % 1028,6 hPa 0,0 l/m 0,0 km/h N 360 0,8 C 0,0 km/h
15.02.2019 18:35 19,2 C 11,1 C 7,5 C 70 % 50 % 1028,6 hPa 0,0 l/m 0,0 km/h N 360 0,8 C 0,0 km/h
15.02.2019 18:30 19,2 C 11,2 C 7,6 C 70 % 50 % 1028,6 hPa 0,0 l/m 0,0 km/h N 360 0,9 C 0,0 km/h
15.02.2019 18:25 19,2 C 11,5 C 7,7 C 70 % 51 % 1028,6 hPa 0,0 l/m 0,0 km/h N 360 0,9 C 0,0 km/h
15.02.2019 18:20 19,2 C 11,8 C 8,0 C 70 % 51 % 1028,2 hPa 0,0 l/m 0,0 km/h N 360 0,9 C 0,0 km/h
15.02.2019 18:16 19,2 C 12,0 C 8,0 C 70 % 52 % 1028,2 hPa 0,0 l/m 0,0 km/h N 360 1,0 C 0,0 km/h
15.02.2019 18:08 19,1 C 12,3 C 8,3 C 70 % 52 % 1028,2 hPa 0,0 l/m 0,0 km/h N 360 1,3 C 0,0 km/h
15.02.2019 18:03 19,1 C 12,4 C 8,5 C 70 % 52 % 1028,2 hPa 0,0 l/m 0,0 km/h N 360 1,1 C 0,0 km/h
15.02.2019 17:58 19,1 C 12,7 C 8,8 C 70 % 53 % 1028,4 hPa 0,0 l/m 0,0 km/h N 360 1,4 C 0,0 km/h
15.02.2019 17:53 19,1 C 12,9 C 8,9 C 69 % 53 % 1028,4 hPa 0,0 l/m 0,0 km/h N 360 1,3 C 0,0 km/h
15.02.2019 17:48 19,1 C 13,1 C 9,2 C 69 % 54 % 1028,4 hPa 0,0 l/m 0,0 km/h N 360 1,4 C 0,0 km/h
15.02.2019 17:43 19,1 C 13,1 C 9,6 C 69 % 54 % 1028,4 hPa 0,0 l/m 0,0 km/h N 360 1,4 C 0,0 km/h
15.02.2019 17:38 19,2 C 13,3 C 9,8 C 69 % 54 % 1028,4 hPa 0,0 l/m 0,0 km/h N 360 1,3 C 0,0 km/h
15.02.2019 17:33 19,2 C 13,5 C 10,0 C 69 % 54 % 1028,4 hPa 0,0 l/m 0,0 km/h N 360 1,5 C 0,0 km/h
15.02.2019 17:28 19,2 C 13,5 C 10,1 C 69 % 54 % 1028,4 hPa 0,0 l/m 0,0 km/h N 360 1,5 C 0,0 km/h
15.02.2019 17:23 19,2 C 13,7 C 10,4 C 69 % 55 % 1028,4 hPa 0,0 l/m 0,0 km/h N 360 1,7 C 0,0 km/h
15.02.2019 17:18 19,2 C 13,8 C 10,5 C 69 % 55 % 1028,3 hPa 0,0 l/m 0,0 km/h N 360 1,8 C 0,0 km/h
15.02.2019 17:13 19,2 C 13,8 C 10,4 C 69 % 55 % 1028,3 hPa 0,0 l/m 0,0 km/h N 360 1,8 C 0,0 km/h
15.02.2019 17:08 19,2 C 14,0 C 10,8 C 69 % 55 % 1028,3 hPa 0,0 l/m 0,0 km/h N 360 1,9 C 0,0 km/h
15.02.2019 17:03 19,2 C 14,0 C 10,9 C 69 % 55 % 1028,3 hPa 0,0 l/m 0,0 km/h N 360 1,9 C 0,0 km/h
15.02.2019 16:58 19,2 C 14,1 C 10,9 C 69 % 55 % 1028,5 hPa 0,0 l/m 0,0 km/h N 360 2,0 C 0,0 km/h
15.02.2019 16:53 19,2 C 14,1 C 11,2 C 69 % 55 % 1028,5 hPa 0,0 l/m 0,0 km/h N 360 2,0 C 0,0 km/h
15.02.2019 16:48 19,2 C 14,2 C 11,3 C 69 % 56 % 1028,5 hPa 0,0 l/m 0,0 km/h N 360 1,8 C 0,0 km/h
15.02.2019 16:43 19,2 C 14,2 C 11,5 C 69 % 56 % 1028,5 hPa 0,0 l/m 0,0 km/h N 360 2,4 C 0,0 km/h
15.02.2019 16:38 19,2 C 14,3 C 11,5 C 69 % 56 % 1028,7 hPa 0,0 l/m 0,0 km/h N 360 2,2 C 0,0 km/h
15.02.2019 16:33 19,2 C 14,3 C 11,4 C 69 % 56 % 1028,7 hPa 0,0 l/m 0,0 km/h N 360 2,5 C 0,0 km/h
15.02.2019 16:28 19,3 C 14,4 C 11,7 C 69 % 56 % 1028,7 hPa 0,0 l/m 0,0 km/h N 360 3,2 C 0,0 km/h
15.02.2019 16:23 19,3 C 14,4 C 11,6 C 69 % 56 % 1028,7 hPa 0,0 l/m 0,0 km/h N 360 3,8 C 0,0 km/h
15.02.2019 16:18 19,2 C 14,5 C 11,9 C 69 % 56 % 1029,0 hPa 0,0 l/m 0,0 km/h N 360 4,5 C 0,0 km/h
15.02.2019 16:13 19,3 C 14,4 C 12,1 C 69 % 56 % 1029,0 hPa 0,0 l/m 0,0 km/h N 360 4,4 C 0,0 km/h
15.02.2019 16:08 19,2 C 14,5 C 11,9 C 69 % 56 % 1029,0 hPa 0,0 l/m 0,0 km/h N 360 4,8 C 0,0 km/h
15.02.2019 16:03 19,2 C 14,5 C 12,0 C 69 % 56 % 1029,0 hPa 0,0 l/m 0,0 km/h N 360 4,5 C 0,0 km/h
15.02.2019 15:58 19,2 C 14,5 C 12,0 C 69 % 56 % 1028,9 hPa 0,0 l/m 0,0 km/h N 360 4,5 C 0,0 km/h
15.02.2019 15:53 19,2 C 14,5 C 12,1 C 69 % 56 % 1028,9 hPa 0,0 l/m 0,0 km/h N 360 4,8 C 0,0 km/h
15.02.2019 15:48 19,1 C 14,7 C 12,5 C 68 % 56 % 1028,9 hPa 0,0 l/m 0,0 km/h N 360 5,0 C 0,0 km/h
15.02.2019 15:43 19,1 C 14,7 C 12,3 C 68 % 56 % 1028,9 hPa 0,0 l/m 0,0 km/h N 360 4,7 C 0,0 km/h
15.02.2019 15:38 19,1 C 14,7 C 12,4 C 68 % 56 % 1029,1 hPa 0,0 l/m 0,0 km/h N 360 4,7 C 0,0 km/h
15.02.2019 15:33 19,1 C 14,6 C 12,7 C 68 % 56 % 1029,1 hPa 0,0 l/m 0,0 km/h N 360 4,6 C 0,0 km/h
15.02.2019 15:28 19,1 C 14,7 C 12,8 C 68 % 56 % 1029,1 hPa 0,0 l/m 0,0 km/h N 360 4,7 C 0,0 km/h
15.02.2019 15:23 19,1 C 14,4 C 12,6 C 67 % 56 % 1029,1 hPa 0,0 l/m 0,0 km/h N 360 4,1 C 0,0 km/h
15.02.2019 15:18 19,0 C 14,3 C 12,3 C 67 % 56 % 1029,2 hPa 0,0 l/m 0,0 km/h N 360 4,3 C 0,0 km/h
15.02.2019 15:13 19,0 C 14,2 C 12,4 C 67 % 56 % 1029,2 hPa 0,0 l/m 0,0 km/h N 360 3,6 C 0,0 km/h
15.02.2019 15:08 19,0 C 14,1 C 12,3 C 67 % 55 % 1029,2 hPa 0,0 l/m 0,0 km/h N 360 3,6 C 0,0 km/h
15.02.2019 15:03 19,0 C 14,1 C 12,1 C 67 % 55 % 1029,2 hPa 0,0 l/m 0,0 km/h N 360 3,6 C 0,0 km/h
15.02.2019 14:58 19,0 C 13,9 C 12,3 C 67 % 55 % 1029,2 hPa 0,0 l/m 0,0 km/h N 360 3,1 C 0,0 km/h
15.02.2019 14:53 19,0 C 13,9 C 12,3 C 67 % 55 % 1029,2 hPa 0,0 l/m 0,0 km/h N 360 3,4 C 0,0 km/h
15.02.2019 14:48 19,0 C 13,6 C 12,1 C 66 % 54 % 1029,2 hPa 0,0 l/m 0,0 km/h N 360 3,4 C 0,0 km/h
15.02.2019 14:43 19,0 C 13,5 C 11,8 C 66 % 54 % 1029,2 hPa 0,0 l/m 0,0 km/h N 360 3,3 C 0,0 km/h
15.02.2019 14:38 18,9 C 13,3 C 11,4 C 66 % 54 % 1029,4 hPa 0,0 l/m 0,0 km/h N 360 3,4 C 0,0 km/h
15.02.2019 14:33 18,9 C 13,2 C 11,3 C 66 % 54 % 1029,4 hPa 0,0 l/m 0,0 km/h N 360 3,3 C 0,0 km/h
15.02.2019 14:28 18,9 C 13,0 C 11,5 C 66 % 53 % 1029,4 hPa 0,0 l/m 0,0 km/h N 360 3,6 C 0,0 km/h
15.02.2019 14:23 18,9 C 12,9 C 11,4 C 66 % 53 % 1029,4 hPa 0,0 l/m 0,0 km/h N 360 3,3 C 0,0 km/h
15.02.2019 14:18 18,9 C 12,6 C 11,1 C 66 % 53 % 1029,5 hPa 0,0 l/m 0,0 km/h N 360 3,5 C 0,0 km/h
15.02.2019 14:13 18,9 C 12,5 C 11,1 C 66 % 53 % 1029,5 hPa 0,0 l/m 0,0 km/h N 360 3,7 C 0,0 km/h
15.02.2019 14:08 18,9 C 12,1 C 10,7 C 66 % 52 % 1029,5 hPa 0,0 l/m 0,0 km/h N 360 3,3 C 0,0 km/h
15.02.2019 14:03 18,9 C 12,0 C 10,3 C 67 % 52 % 1029,5 hPa 0,0 l/m 0,0 km/h N 360 3,5 C 0,0 km/h
15.02.2019 13:58 18,9 C 11,6 C 9,9 C 67 % 51 % 1029,6 hPa 0,0 l/m 0,0 km/h N 360 3,4 C 0,0 km/h
15.02.2019 13:53 18,9 C 11,4 C 9,7 C 67 % 51 % 1029,6 hPa 0,0 l/m 0,0 km/h N 360 3,4 C 0,0 km/h
15.02.2019 13:48 18,8 C 11,2 C 9,6 C 67 % 50 % 1029,6 hPa 0,0 l/m 0,0 km/h N 360 3,2 C 0,0 km/h
15.02.2019 13:43 18,8 C 11,1 C 9,6 C 67 % 50 % 1029,6 hPa 0,0 l/m 0,0 km/h N 360 3,2 C 0,0 km/h
15.02.2019 13:38 18,8 C 10,9 C 9,4 C 67 % 50 % 1030,1 hPa 0,0 l/m 0,0 km/h N 360 3,0 C 0,0 km/h
15.02.2019 13:33 18,8 C 10,9 C 9,2 C 67 % 50 % 1030,1 hPa 0,0 l/m 0,0 km/h N 360 3,2 C 0,0 km/h
15.02.2019 13:28 18,7 C 10,4 C 8,9 C 67 % 49 % 1030,1 hPa 0,0 l/m 0,0 km/h N 360 3,0 C 0,0 km/h
15.02.2019 13:23 18,7 C 10,3 C 9,1 C 67 % 49 % 1030,1 hPa 0,0 l/m 0,0 km/h N 360 2,9 C 0,0 km/h
15.02.2019 13:18 18,7 C 10,0 C 8,8 C 67 % 48 % 1030,3 hPa 0,0 l/m 0,0 km/h N 360 2,6 C 0,0 km/h
15.02.2019 13:13 18,7 C 9,9 C 8,8 C 67 % 48 % 1030,3 hPa 0,0 l/m 0,0 km/h N 360 2,7 C 0,0 km/h
15.02.2019 13:08 18,7 C 9,6 C 8,4 C 67 % 48 % 1030,3 hPa 0,0 l/m 0,0 km/h N 360 2,5 C 0,0 km/h
15.02.2019 13:03 18,6 C 9,6 C 8,4 C 67 % 48 % 1030,3 hPa 0,0 l/m 0,0 km/h N 360 2,7 C 0,0 km/h
15.02.2019 12:58 18,6 C 9,3 C 8,3 C 67 % 47 % 1030,8 hPa 0,0 l/m 0,0 km/h N 360 2,4 C 0,0 km/h
15.02.2019 12:53 18,6 C 9,3 C 8,2 C 67 % 47 % 1030,8 hPa 0,0 l/m 0,0 km/h N 360 2,4 C 0,0 km/h
15.02.2019 12:48 18,6 C 9,1 C 8,1 C 67 % 47 % 1030,8 hPa 0,0 l/m 0,0 km/h N 360 2,0 C 0,0 km/h
15.02.2019 12:43 18,6 C 8,9 C 8,0 C 67 % 46 % 1030,8 hPa 0,0 l/m 0,0 km/h N 360 2,2 C 0,0 km/h
15.02.2019 12:38 18,6 C 8,6 C 7,9 C 67 % 46 % 1031,0 hPa 0,0 l/m 0,0 km/h N 360 2,0 C 0,0 km/h
15.02.2019 12:33 18,5 C 8,5 C 7,9 C 67 % 46 % 1031,0 hPa 0,0 l/m 0,0 km/h N 360 2,1 C 0,0 km/h
15.02.2019 12:28 18,5 C 8,2 C 7,7 C 67 % 45 % 1031,0 hPa 0,0 l/m 0,0 km/h N 360 2,0 C 0,0 km/h
15.02.2019 12:23 18,5 C 8,1 C 7,5 C 67 % 45 % 1031,0 hPa 0,0 l/m 0,0 km/h N 360 1,9 C 0,0 km/h
15.02.2019 12:18 18,5 C 7,9 C 7,3 C 67 % 45 % 1031,2 hPa 0,0 l/m 0,0 km/h N 360 1,9 C 0,0 km/h
15.02.2019 12:13 18,5 C 7,7 C 7,0 C 67 % 44 % 1031,2 hPa 0,0 l/m 0,0 km/h N 360 2,0 C 0,0 km/h
15.02.2019 12:08 18,4 C 7,4 C 6,7 C 67 % 44 % 1031,2 hPa 0,0 l/m 0,0 km/h N 360 1,9 C 0,0 km/h
15.02.2019 12:03 18,4 C 7,3 C 6,6 C 67 % 44 % 1031,2 hPa 0,0 l/m 0,0 km/h N 360 2,0 C 0,0 km/h
15.02.2019 11:58 18,4 C 7,1 C 6,5 C 67 % 43 % 1031,6 hPa 0,0 l/m 0,0 km/h N 360 2,0 C 0,0 km/h
15.02.2019 11:53 18,4 C 7,0 C 6,5 C 67 % 43 % 1031,6 hPa 0,0 l/m 0,0 km/h N 360 2,1 C 0,0 km/h
15.02.2019 11:48 18,4 C 6,8 C 6,4 C 67 % 43 % 1031,6 hPa 0,0 l/m 0,0 km/h N 360 1,9 C 0,0 km/h
15.02.2019 11:43 18,4 C 6,7 C 6,1 C 67 % 43 % 1031,6 hPa 0,0 l/m 0,0 km/h N 360 2,0 C 0,0 km/h
15.02.2019 11:38 18,4 C 6,3 C 5,8 C 67 % 42 % 1031,6 hPa 0,0 l/m 0,0 km/h N 360 1,8 C 0,0 km/h
15.02.2019 11:33 18,4 C 6,1 C 5,7 C 67 % 42 % 1031,6 hPa 0,0 l/m 0,0 km/h N 360 1,8 C 0,0 km/h
15.02.2019 11:28 18,2 C 5,9 C 5,5 C 67 % 41 % 1031,6 hPa 0,0 l/m 0,0 km/h N 360 1,6 C 0,0 km/h
15.02.2019 11:23 18,3 C 5,7 C 5,3 C 67 % 41 % 1031,6 hPa 0,0 l/m 0,0 km/h N 360 1,6 C 0,0 km/h
15.02.2019 11:18 18,3 C 5,4 C 5,2 C 67 % 40 % 1031,6 hPa 0,0 l/m 0,0 km/h N 360 1,5 C 0,0 km/h
15.02.2019 11:13 18,3 C 5,2 C 4,5 C 67 % 40 % 1031,6 hPa 0,0 l/m 0,0 km/h N 360 1,5 C 0,0 km/h
15.02.2019 11:08 18,3 C 4,9 C 4,5 C 67 % 39 % 1031,6 hPa 0,0 l/m 0,0 km/h N 360 1,4 C 0,0 km/h
15.02.2019 11:03 18,2 C 4,7 C 4,5 C 67 % 39 % 1031,6 hPa 0,0 l/m 0,0 km/h N 360 1,4 C 0,0 km/h
15.02.2019 10:58 18,2 C 4,4 C 4,5 C 67 % 39 % 1031,4 hPa 0,0 l/m 0,0 km/h N 360 1,4 C 0,0 km/h
15.02.2019 10:53 18,2 C 4,1 C 4,1 C 67 % 38 % 1031,4 hPa 0,0 l/m 0,0 km/h N 360 1,3 C 0,0 km/h
15.02.2019 10:48 18,2 C 3,8 C 3,9 C 67 % 38 % 1031,4 hPa 0,0 l/m 0,0 km/h N 360 1,2 C 0,0 km/h
15.02.2019 10:43 18,2 C 3,4 C 3,5 C 66 % 37 % 1031,4 hPa 0,0 l/m 0,0 km/h N 360 0,8 C 0,0 km/h
15.02.2019 10:38 18,1 C 3,1 C 3,1 C 67 % 36 % 1031,4 hPa 0,0 l/m 0,0 km/h N 360 0,8 C 0,0 km/h
15.02.2019 10:33 18,1 C 2,8 C 3,1 C 66 % 36 % 1031,4 hPa 0,0 l/m 0,0 km/h N 360 0,5 C 0,0 km/h
15.02.2019 10:28 18,1 C 2,5 C 2,7 C 66 % 35 % 1031,4 hPa 0,0 l/m 0,0 km/h N 360 0,2 C 0,0 km/h
15.02.2019 10:23 18,0 C 2,3 C 2,5 C 66 % 35 % 1031,4 hPa 0,0 l/m 0,0 km/h N 360 0,2 C 0,0 km/h
15.02.2019 10:18 18,0 C 2,1 C 2,3 C 67 % 35 % 1031,1 hPa 0,0 l/m 0,0 km/h N 360 0,0 C 0,0 km/h
15.02.2019 10:13 18,0 C 1,9 C 2,0 C 67 % 34 % 1031,1 hPa 0,0 l/m 0,0 km/h N 360 -0,2 C 0,0 km/h
15.02.2019 10:08 17,9 C 1,6 C 1,8 C 67 % 34 % 1031,1 hPa 0,0 l/m 0,0 km/h N 360 -0,3 C 0,0 km/h
15.02.2019 10:03 17,9 C 1,5 C 1,6 C 67 % 34 % 1031,1 hPa 0,0 l/m 0,0 km/h N 360 -0,4 C 0,0 km/h
15.02.2019 09:58 17,8 C 1,2 C 1,5 C 66 % 33 % 1031,5 hPa 0,0 l/m 0,0 km/h N 360 -0,7 C 0,0 km/h
15.02.2019 09:53 17,8 C 1,1 C 1,5 C 66 % 33 % 1031,5 hPa 0,0 l/m 0,0 km/h N 360 -0,8 C 0,0 km/h
15.02.2019 09:48 17,8 C 0,8 C 1,3 C 66 % 32 % 1031,5 hPa 0,0 l/m 0,0 km/h N 360 -1,1 C 0,0 km/h
15.02.2019 09:43 17,8 C 0,7 C 1,0 C 66 % 32 % 1031,5 hPa 0,0 l/m 0,0 km/h N 360 -1,2 C 0,0 km/h
15.02.2019 09:38 17,8 C 0,4 C 0,8 C 66 % 32 % 1031,6 hPa 0,0 l/m 0,0 km/h N 360 -1,3 C 0,0 km/h
15.02.2019 09:33 17,8 C 0,3 C 0,8 C 66 % 32 % 1031,6 hPa 0,0 l/m 0,0 km/h N 360 -1,4 C 0,0 km/h
15.02.2019 09:28 17,8 C 0,0 C 0,5 C 66 % 31 % 1031,6 hPa 0,0 l/m 0,0 km/h N 360 -1,7 C 0,0 km/h
15.02.2019 09:23 17,8 C -0,1 C 0,4 C 66 % 31 % 1031,6 hPa 0,0 l/m 0,0 km/h N 360 -1,8 C 0,0 km/h
15.02.2019 09:18 17,8 C -0,3 C 0,2 C 66 % 31 % 1031,3 hPa 0,0 l/m 0,0 km/h N 360 -2,0 C 0,0 km/h
15.02.2019 09:13 17,8 C -0,4 C 0,1 C 66 % 30 % 1031,3 hPa 0,0 l/m 0,0 km/h N 360 -2,1 C 0,0 km/h
15.02.2019 09:08 17,8 C -0,5 C -0,1 C 66 % 30 % 1031,3 hPa 0,0 l/m 0,0 km/h N 360 -2,2 C 0,0 km/h
15.02.2019 09:03 17,8 C -0,7 C -0,3 C 66 % 30 % 1031,3 hPa 0,0 l/m 0,0 km/h N 360 -2,4 C 0,0 km/h
15.02.2019 08:58 17,8 C -0,9 C -0,5 C 66 % 29 % 1032,0 hPa 0,0 l/m 0,0 km/h N 360 -2,6 C 0,0 km/h
15.02.2019 08:53 17,8 C -0,9 C -0,5 C 66 % 29 % 1032,0 hPa 0,0 l/m 0,0 km/h N 360 -2,6 C 0,0 km/h
15.02.2019 08:48 17,9 C -0,9 C -0,5 C 66 % 29 % 1032,0 hPa 0,0 l/m 0,0 km/h N 360 -2,6 C 0,0 km/h
15.02.2019 08:43 17,9 C -0,9 C -0,7 C 66 % 29 % 1032,0 hPa 0,0 l/m 0,0 km/h N 360 -2,8 C 0,0 km/h
15.02.2019 08:38 17,9 C -1,1 C -0,7 C 66 % 29 % 1031,3 hPa 0,0 l/m 0,0 km/h N 360 -3,0 C 0,0 km/h
15.02.2019 08:33 17,9 C -1,1 C -0,7 C 66 % 29 % 1031,3 hPa 0,0 l/m 0,0 km/h N 360 -3,0 C 0,0 km/h
15.02.2019 08:28 17,9 C -1,2 C -0,9 C 66 % 29 % 1031,3 hPa 0,0 l/m 0,0 km/h N 360 -3,1 C 0,0 km/h
15.02.2019 08:23 17,9 C -1,1 C -0,9 C 66 % 29 % 1031,3 hPa 0,0 l/m 0,0 km/h N 360 -3,0 C 0,0 km/h
15.02.2019 08:18 17,9 C -1,1 C -0,9 C 66 % 29 % 1031,9 hPa 0,0 l/m 0,0 km/h N 360 -3,0 C 0,0 km/h
15.02.2019 08:13 17,9 C -1,3 C -0,9 C 66 % 29 % 1031,9 hPa 0,0 l/m 0,0 km/h N 360 -3,2 C 0,0 km/h
15.02.2019 08:08 17,9 C -1,3 C -0,9 C 66 % 29 % 1031,9 hPa 0,0 l/m 0,0 km/h N 360 -3,2 C 0,0 km/h
15.02.2019 08:03 18,0 C -1,3 C -1,1 C 66 % 29 % 1031,9 hPa 0,0 l/m 0,0 km/h N 360 -3,2 C 0,0 km/h
15.02.2019 07:58 18,0 C -1,4 C -1,2 C 66 % 29 % 1031,9 hPa 0,0 l/m 0,0 km/h N 360 -3,3 C 0,0 km/h
15.02.2019 07:53 18,0 C -1,3 C -1,1 C 66 % 29 % 1031,9 hPa 0,0 l/m 0,0 km/h N 360 -3,2 C 0,0 km/h
15.02.2019 07:48 18,0 C -1,3 C -1,3 C 66 % 29 % 1031,9 hPa 0,0 l/m 0,0 km/h N 360 -3,3 C 0,0 km/h
15.02.2019 07:43 18,0 C -1,3 C -1,2 C 66 % 29 % 1031,9 hPa 0,0 l/m 0,0 km/h N 360 -3,3 C 0,0 km/h
15.02.2019 07:38 18,0 C -1,3 C -1,2 C 66 % 29 % 1031,7 hPa 0,0 l/m 0,0 km/h N 360 -3,3 C 0,0 km/h
15.02.2019 07:33 18,0 C -1,3 C -1,2 C 66 % 29 % 1031,7 hPa 0,0 l/m 0,0 km/h N 360 -3,3 C 0,0 km/h
15.02.2019 07:28 18,0 C -1,3 C -1,1 C 66 % 29 % 1031,7 hPa 0,0 l/m 0,0 km/h N 360 -3,3 C 0,0 km/h
15.02.2019 07:23 18,0 C -1,3 C -1,1 C 66 % 29 % 1031,7 hPa 0,0 l/m 0,0 km/h N 360 -3,3 C 0,0 km/h
15.02.2019 07:18 18,0 C -1,1 C -0,9 C 66 % 29 % 1031,3 hPa 0,0 l/m 0,0 km/h N 360 -3,1 C 0,0 km/h
15.02.2019 07:13 18,0 C -1,2 C -1,0 C 66 % 29 % 1031,3 hPa 0,0 l/m 0,0 km/h N 360 -3,2 C 0,0 km/h
15.02.2019 07:08 18,1 C -1,2 C -1,0 C 66 % 29 % 1031,3 hPa 0,0 l/m 0,0 km/h N 360 -3,2 C 0,0 km/h
15.02.2019 07:03 18,1 C -1,1 C -1,0 C 66 % 29 % 1031,3 hPa 0,0 l/m 0,0 km/h N 360 -3,1 C 0,0 km/h
15.02.2019 06:58 18,1 C -1,1 C -0,9 C 66 % 29 % 1031,7 hPa 0,0 l/m 0,0 km/h N 360 -3,0 C 0,0 km/h
15.02.2019 06:53 18,1 C -1,1 C -0,9 C 66 % 29 % 1031,7 hPa 0,0 l/m 0,0 km/h N 360 -3,0 C 0,0 km/h
15.02.2019 06:48 18,1 C -1,1 C -0,9 C 66 % 29 % 1031,7 hPa 0,0 l/m 0,0 km/h N 360 -3,0 C 0,0 km/h
15.02.2019 06:43 18,1 C -1,1 C -0,9 C 66 % 29 % 1031,7 hPa 0,0 l/m 0,0 km/h N 360 -3,1 C 0,0 km/h
15.02.2019 06:38 18,1 C -1,1 C -0,9 C 66 % 29 % 1031,8 hPa 0,0 l/m 0,0 km/h N 360 -3,1 C 0,0 km/h
15.02.2019 06:33 18,1 C -1,1 C -1,0 C 66 % 29 % 1031,8 hPa 0,0 l/m 0,0 km/h N 360 -3,1 C 0,0 km/h
15.02.2019 06:28 18,1 C -1,1 C -0,9 C 66 % 29 % 1031,8 hPa 0,0 l/m 0,0 km/h N 360 -3,1 C 0,0 km/h
15.02.2019 06:23 18,2 C -1,1 C -0,9 C 66 % 29 % 1031,8 hPa 0,0 l/m 0,0 km/h N 360 -3,1 C 0,0 km/h
15.02.2019 06:18 18,2 C -1,1 C -0,9 C 66 % 29 % 1031,6 hPa 0,0 l/m 0,0 km/h N 360 -3,1 C 0,0 km/h
15.02.2019 06:13 18,2 C -1,1 C -0,9 C 66 % 29 % 1031,6 hPa 0,0 l/m 0,0 km/h N 360 -3,1 C 0,0 km/h
15.02.2019 06:08 18,2 C -0,9 C -0,9 C 66 % 29 % 1031,6 hPa 0,0 l/m 0,0 km/h N 360 -2,9 C 0,0 km/h
15.02.2019 06:03 18,2 C -0,9 C -0,9 C 66 % 29 % 1031,6 hPa 0,0 l/m 0,0 km/h N 360 -2,9 C 0,0 km/h
15.02.2019 05:58 18,2 C -0,9 C -0,9 C 66 % 29 % 1031,5 hPa 0,0 l/m 0,0 km/h N 360 -2,9 C 0,0 km/h
15.02.2019 05:53 18,2 C -0,9 C -0,8 C 66 % 29 % 1031,5 hPa 0,0 l/m 0,0 km/h N 360 -2,9 C 0,0 km/h
15.02.2019 05:48 18,3 C -1,0 C -0,8 C 66 % 29 % 1031,5 hPa 0,0 l/m 0,0 km/h N 360 -3,0 C 0,0 km/h
15.02.2019 05:43 18,3 C -1,0 C -0,8 C 66 % 29 % 1031,5 hPa 0,0 l/m 0,0 km/h N 360 -3,0 C 0,0 km/h
15.02.2019 05:38 18,3 C -1,0 C -0,8 C 66 % 29 % 1031,6 hPa 0,0 l/m 0,0 km/h N 360 -3,0 C 0,0 km/h
15.02.2019 05:33 18,2 C -0,9 C -0,8 C 66 % 29 % 1031,6 hPa 0,0 l/m 0,0 km/h N 360 -2,9 C 0,0 km/h
15.02.2019 05:28 18,2 C -0,9 C -0,8 C 66 % 29 % 1031,6 hPa 0,0 l/m 0,0 km/h N 360 -2,9 C 0,0 km/h
15.02.2019 05:23 18,2 C -0,9 C -0,8 C 66 % 29 % 1031,6 hPa 0,0 l/m 0,0 km/h N 360 -2,9 C 0,0 km/h
15.02.2019 05:18 18,4 C -0,9 C -0,7 C 66 % 29 % 1031,6 hPa 0,0 l/m 0,0 km/h N 360 -2,9 C 0,0 km/h
15.02.2019 05:13 18,4 C -0,9 C -0,7 C 66 % 29 % 1031,6 hPa 0,0 l/m 0,0 km/h N 360 -2,9 C 0,0 km/h
15.02.2019 05:08 18,4 C -0,9 C -0,7 C 65 % 29 % 1031,6 hPa 0,0 l/m 0,0 km/h N 360 -2,9 C 0,0 km/h
15.02.2019 05:03 18,4 C -0,9 C -0,7 C 65 % 29 % 1031,6 hPa 0,0 l/m 0,0 km/h N 360 -2,9 C 0,0 km/h
15.02.2019 04:58 18,4 C -0,9 C -0,7 C 65 % 29 % 1031,4 hPa 0,0 l/m 0,0 km/h N 360 -2,9 C 0,0 km/h
15.02.2019 04:53 18,4 C -0,9 C -0,7 C 65 % 29 % 1031,4 hPa 0,0 l/m 0,0 km/h N 360 -2,9 C 0,0 km/h
15.02.2019 04:48 18,4 C -0,9 C -0,7 C 65 % 29 % 1031,4 hPa 0,0 l/m 0,0 km/h N 360 -2,9 C 0,0 km/h
15.02.2019 04:43 18,5 C -1,0 C -0,8 C 65 % 29 % 1031,4 hPa 0,0 l/m 0,0 km/h N 360 -3,0 C 0,0 km/h
15.02.2019 04:38 18,5 C -0,9 C -0,8 C 65 % 29 % 1031,5 hPa 0,0 l/m 0,0 km/h N 360 -3,1 C 0,0 km/h
15.02.2019 04:33 18,5 C -0,9 C -0,7 C 65 % 29 % 1031,5 hPa 0,0 l/m 0,0 km/h N 360 -3,1 C 0,0 km/h
15.02.2019 04:28 18,5 C -1,0 C -0,7 C 65 % 29 % 1031,5 hPa 0,0 l/m 0,0 km/h N 360 -3,2 C 0,0 km/h
15.02.2019 04:23 18,6 C -0,9 C -0,5 C 65 % 29 % 1031,5 hPa 0,0 l/m 0,0 km/h N 360 -3,1 C 0,0 km/h
15.02.2019 04:18 18,6 C -0,9 C -0,5 C 65 % 29 % 1031,6 hPa 0,0 l/m 0,0 km/h N 360 -3,1 C 0,0 km/h
15.02.2019 04:13 18,6 C -0,9 C -0,5 C 65 % 29 % 1031,6 hPa 0,0 l/m 0,0 km/h N 360 -3,1 C 0,0 km/h
15.02.2019 04:08 18,6 C -0,9 C -0,6 C 65 % 29 % 1031,6 hPa 0,0 l/m 0,0 km/h N 360 -3,1 C 0,0 km/h
15.02.2019 04:03 18,6 C -0,8 C -0,5 C 65 % 30 % 1031,6 hPa 0,0 l/m 0,0 km/h N 360 -2,8 C 0,0 km/h
15.02.2019 03:58 18,7 C -0,8 C -0,5 C 65 % 30 % 1031,8 hPa 0,0 l/m 0,0 km/h N 360 -2,8 C 0,0 km/h
15.02.2019 03:53 18,7 C -0,8 C -0,5 C 65 % 30 % 1031,8 hPa 0,0 l/m 0,0 km/h N 360 -2,8 C 0,0 km/h
15.02.2019 03:48 18,7 C -0,8 C -0,5 C 65 % 30 % 1031,8 hPa 0,0 l/m 0,0 km/h N 360 -2,8 C 0,0 km/h
15.02.2019 03:43 18,7 C -0,8 C -0,5 C 65 % 30 % 1031,8 hPa 0,0 l/m 0,0 km/h N 360 -2,8 C 0,0 km/h
15.02.2019 03:38 18,8 C -0,8 C -0,5 C 65 % 30 % 1031,8 hPa 0,0 l/m 0,0 km/h N 360 -2,8 C 0,0 km/h
15.02.2019 03:33 18,8 C -0,8 C -0,5 C 65 % 30 % 1031,8 hPa 0,0 l/m 0,0 km/h N 360 -2,8 C 0,0 km/h
15.02.2019 03:28 18,8 C -0,9 C -0,5 C 65 % 29 % 1031,8 hPa 0,0 l/m 0,0 km/h N 360 -3,1 C 0,0 km/h
15.02.2019 03:23 18,8 C -0,9 C -0,6 C 65 % 29 % 1031,8 hPa 0,0 l/m 0,0 km/h N 360 -3,1 C 0,0 km/h
15.02.2019 03:18 18,8 C -0,8 C -0,5 C 65 % 30 % 1032,1 hPa 0,0 l/m 0,0 km/h N 360 -3,0 C 0,0 km/h
15.02.2019 03:13 18,9 C -0,8 C -0,5 C 65 % 30 % 1032,1 hPa 0,0 l/m 0,0 km/h N 360 -3,0 C 0,0 km/h
15.02.2019 03:08 18,9 C -0,8 C -0,5 C 65 % 30 % 1032,1 hPa 0,0 l/m 0,0 km/h N 360 -3,0 C 0,0 km/h
15.02.2019 03:03 19,0 C -0,8 C -0,5 C 65 % 30 % 1032,1 hPa 0,0 l/m 0,0 km/h N 360 -3,0 C 0,0 km/h
15.02.2019 02:58 19,0 C -0,7 C -0,5 C 65 % 30 % 1032,5 hPa 0,0 l/m 0,0 km/h N 360 -2,9 C 0,0 km/h
15.02.2019 02:53 19,0 C -0,7 C -0,4 C 65 % 30 % 1032,5 hPa 0,0 l/m 0,0 km/h N 360 -2,9 C 0,0 km/h
15.02.2019 02:48 19,0 C -0,7 C -0,4 C 65 % 30 % 1032,5 hPa 0,0 l/m 0,0 km/h N 360 -2,9 C 0,0 km/h
15.02.2019 02:43 19,1 C -0,5 C -0,3 C 65 % 30 % 1032,5 hPa 0,0 l/m 0,0 km/h N 360 -2,7 C 0,0 km/h
15.02.2019 02:38 19,1 C -0,5 C -0,4 C 65 % 30 % 1032,7 hPa 0,0 l/m 0,0 km/h N 360 -2,7 C 0,0 km/h
15.02.2019 02:33 19,2 C -0,5 C -0,3 C 64 % 30 % 1032,7 hPa 0,0 l/m 0,0 km/h N 360 -2,7 C 0,0 km/h
15.02.2019 02:28 19,2 C -0,5 C -0,3 C 64 % 30 % 1032,7 hPa 0,0 l/m 0,0 km/h N 360 -2,7 C 0,0 km/h
15.02.2019 02:23 19,2 C -0,5 C -0,3 C 64 % 30 % 1032,7 hPa 0,0 l/m 0,0 km/h N 360 -2,7 C 0,0 km/h
15.02.2019 02:18 19,2 C -0,5 C -0,3 C 64 % 30 % 1032,9 hPa 0,0 l/m 0,0 km/h N 360 -2,7 C 0,0 km/h
15.02.2019 02:13 19,3 C -0,5 C -0,2 C 64 % 30 % 1032,9 hPa 0,0 l/m 0,0 km/h N 360 -2,9 C 0,0 km/h
15.02.2019 02:08 19,2 C -0,5 C -0,1 C 64 % 30 % 1032,9 hPa 0,0 l/m 0,0 km/h N 360 -2,9 C 0,0 km/h
15.02.2019 02:03 19,4 C -0,5 C -0,3 C 64 % 30 % 1032,9 hPa 0,0 l/m 0,0 km/h N 360 -2,9 C 0,0 km/h
15.02.2019 01:58 19,4 C -0,4 C -0,1 C 64 % 30 % 1033,1 hPa 0,0 l/m 0,0 km/h N 360 -2,8 C 0,0 km/h
15.02.2019 01:53 19,5 C -0,4 C -0,1 C 64 % 30 % 1033,1 hPa 0,0 l/m 0,0 km/h N 360 -2,8 C 0,0 km/h
15.02.2019 01:48 19,5 C -0,3 C -0,1 C 64 % 31 % 1033,1 hPa 0,0 l/m 0,0 km/h N 360 -2,7 C 0,0 km/h
15.02.2019 01:43 19,5 C -0,3 C -0,1 C 64 % 31 % 1033,1 hPa 0,0 l/m 0,0 km/h N 360 -2,7 C 0,0 km/h
15.02.2019 01:38 19,6 C -0,3 C -0,1 C 64 % 31 % 1033,1 hPa 0,0 l/m 0,0 km/h N 360 -2,7 C 0,0 km/h
15.02.2019 01:33 19,6 C -0,3 C -0,1 C 64 % 31 % 1033,1 hPa 0,0 l/m 0,0 km/h N 360 -2,7 C 0,0 km/h
15.02.2019 01:28 19,7 C -0,1 C 0,1 C 64 % 31 % 1033,1 hPa 0,0 l/m 0,0 km/h N 360 -2,5 C 0,0 km/h
15.02.2019 01:23 19,7 C -0,1 C -0,1 C 64 % 31 % 1033,1 hPa 0,0 l/m 0,0 km/h N 360 -2,5 C 0,0 km/h
15.02.2019 01:18 19,8 C -0,1 C 0,0 C 64 % 31 % 1033,4 hPa 0,0 l/m 0,0 km/h N 360 -2,5 C 0,0 km/h
15.02.2019 01:13 19,8 C -0,1 C 0,0 C 64 % 31 % 1033,4 hPa 0,0 l/m 0,0 km/h N 360 -2,6 C 0,0 km/h
15.02.2019 01:08 19,9 C -0,1 C 0,1 C 64 % 31 % 1033,4 hPa 0,0 l/m 0,0 km/h N 360 -2,5 C 0,0 km/h
15.02.2019 01:03 20,0 C -0,1 C 0,1 C 64 % 31 % 1033,4 hPa 0,0 l/m 0,0 km/h N 360 -2,6 C 0,0 km/h
15.02.2019 00:58 20,0 C -0,1 C 0,1 C 64 % 31 % 1033,5 hPa 0,0 l/m 0,0 km/h N 360 -2,6 C 0,0 km/h
15.02.2019 00:53 20,1 C 0,0 C 0,1 C 64 % 31 % 1033,5 hPa 0,0 l/m 0,0 km/h N 360 -2,5 C 0,0 km/h
15.02.2019 00:48 20,2 C 0,0 C 0,3 C 64 % 31 % 1033,5 hPa 0,0 l/m 0,0 km/h N 360 -2,5 C 0,0 km/h
15.02.2019 00:43 20,2 C 0,1 C 0,2 C 64 % 31 % 1033,5 hPa 0,0 l/m 0,0 km/h N 360 -2,4 C 0,0 km/h
15.02.2019 00:38 20,2 C 0,1 C 0,3 C 64 % 31 % 1033,8 hPa 0,0 l/m 0,0 km/h N 360 -2,4 C 0,0 km/h
15.02.2019 00:33 20,4 C 0,2 C 0,3 C 64 % 31 % 1033,8 hPa 0,0 l/m 0,0 km/h N 360 -2,3 C 0,0 km/h
15.02.2019 00:28 20,5 C 0,3 C 0,3 C 64 % 32 % 1033,8 hPa 0,0 l/m 0,0 km/h N 360 -2,2 C 0,0 km/h
15.02.2019 00:23 20,6 C 0,3 C 0,4 C 63 % 32 % 1033,8 hPa 0,0 l/m 0,0 km/h N 360 -2,2 C 0,0 km/h
15.02.2019 00:18 20,7 C 0,2 C 0,4 C 63 % 31 % 1034,0 hPa 0,0 l/m 0,0 km/h N 360 -2,3 C 0,0 km/h
15.02.2019 00:13 20,8 C 0,3 C 0,4 C 63 % 32 % 1034,0 hPa 0,0 l/m 0,0 km/h N 360 -2,2 C 0,0 km/h
15.02.2019 00:08 20,9 C 0,3 C 0,4 C 63 % 32 % 1034,0 hPa 0,0 l/m 0,0 km/h N 360 -2,4 C 0,0 km/h
15.02.2019 00:03 21,0 C 0,4 C 0,5 C 63 % 32 % 1034,0 hPa 0,0 l/m 0,0 km/h N 360 -2,3 C 0,0 km/h
_ Min-Zeit 08:53 07:58 07:48 00:03 - 18:03 - 00:03 - - 07:23 00:03
Minimum _ 17,8 C -1,4 C -1,3 C 63 % - 1028,2 hPa - 0,0 km/h - - -3,3 C 0,0 km/h
_ Max-Zeit 00:03 15:28 15:28 17:58 15:28 00:03 00:03 00:03 - - 15:48 00:03
Maximum _ 21,0 C 14,7 C 12,8 C 70 % 56 % 1034,0 hPa 0,0 l/m 0,0 km/h
N
- - 5,0 C 0,0 km/h
N
Durchschnitt _ 18,8 C 4,9 C 4,1 C 67 % #25 min. 1030,9 hPa #0,0 l/m 0,0 km/h N - -0,3 C 0,0 km/h